Tracking 30510 objects as of 22-May-2025
HD Live streaming from Space Station
objects crossing your sky now

METEOR 1-17 DEB

Track METEOR 1-17 DEB now!
10-day predictions


NORAD ID: 57726
Int'l Code: 1991-033P
Perigee: 833.5 km
Apogee: 840.1 km
Inclination: 81.2 °
Period: 101.5 minutes
Semi major axis: 7207 km
RCS: Unknown
Launch date: May 16, 1991
Source: Commonwealth of Independent States (former USSR) (CIS)
Launch site: PLESETSK MISSILE AND SPACE COMPLEX (PKMTR)
Your satellite tracking list
Your tracking list is empty




NASA's NSSDC Master Catalog

Two Line Element Set (TLE):
1 57726U 74025M   25141.43573023  .00003098  00000-0  14868-2 0  9994
2 57726  81.2109 314.7873 0004558 352.1406   7.9697 14.18721192 89423
Source of the keplerian elements: AFSPC